Location: Waldport
(44.4270°N, 124.0680°W)
Time: 18:52:45
(UTC-08:00)

Meteor 1-11 - Pass Details

Date: 23 June 2018
Orbit: 842 x 885 km, 81.2° (Epoch: 17 November)

Event Time Altitude Azimuth Distance (km) Brightness Sun altitude
Exits shadow 23:44:24 31° 179° (S) 1,498 5.0 -18.8°
Maximum altitude 23:47:19 78° 98° (E) 901 4.2 -19.0°
Drops below altitude 10° 23:53:07 10° 13° (NNE) 2,552 7.5 -19.4°
Sets 23:55:35 0° 12° (NNE) 3,498 8.4 -19.5°
